Location: Haliburton Scout Reserve
(45.0900°N, 78.3200°W)
Time: 12:33:19
(UTC-05:00)

N. Korean satellite - Pass Details

Date: 03 December 2021
Orbit: 447 x 491 km, 97.3° (Epoch: 23 January)

Event Time Altitude Azimuth Distance (km) Brightness Sun altitude
Rises 05:01:44 0° 21° (NNE) 2,468 10.3 -26.1°
Reaches altitude 10° 05:03:55 10° 31° (NNE) 1,586 9.4 -25.7°
Maximum altitude 05:07:01 33° 97° (E) 777 8.1 -25.2°
Drops below altitude 10° 05:10:06 10° 164° (SSE) 1,569 9.4 -24.7°
Sets 05:12:15 0° 174° (S) 2,435 10.3 -24.3°
